Waarnemingen

Advertentie
Mijn weer
Cap Bear, Frankrijk (7749): temperatuur & dauwpunt: 13.07.2018 21:00:00 - 19.07.2018 21:00:00 (CEST)Cap Bear, Frankrijk (7749): windsnelheid & windstoten: 13.07.2018 21:00:00 - 19.07.2018 21:00:00 (CEST)Cap Bear, Frankrijk (7749): windrichting: 13.07.2018 21:00:00 - 19.07.2018 21:00:00 (CEST)Cap Bear, Frankrijk (7749): luchtdruk: 13.07.2018 21:00:00 - 19.07.2018 21:00:00 (CEST)Cap Bear, Frankrijk (7749): zicht: 13.07.2018 21:00:00 - 19.07.2018 21:00:00 (CEST)Cap Bear, Frankrijk (7749): neerslag: 13.07.2018 21:00:00 - 19.07.2018 21:00:00 (CEST)
Datum & Tijd tt [°C] td [°C] ff [km/u] ff [kn] fx [km/u] fx [kn] dd ppp [hPa] vv [km] rr [mm]
19.07.2018 21:00:00 28,5 15,4 21 12 43 23 ZZW 1012,4 - 0,0
19.07.2018 20:00:00 26,3 18,9 21 11 35 19 Z 1012,6 20 0,0
19.07.2018 19:00:00 26,4 19,3 32 17 39 21 ZZO 1012,7 - 0,0
19.07.2018 18:00:00 25,6 19,9 32 17 36 20 ZZO 1013,2 - 0,0
19.07.2018 17:00:00 26,0 19,9 28 15 30 16 ZZO 1013,4 - 0,0
19.07.2018 16:00:00 26,5 20,3 26 14 28 15 ZZO 1014,1 - 0,4
19.07.2018 15:00:00 - - 22 12 26 14 ZZO - - 0,0
19.07.2018 14:00:00 - - 16 9 20 11 ZZO - - 0,0
19.07.2018 13:00:00 - - 10 5 17 9 ZO - - 0,0
19.07.2018 12:00:00 - - 13 7 16 9 NNO - - 0,0
19.07.2018 11:00:00 - - 15 8 28 15 NNW - - 0,0
19.07.2018 10:00:00 - - 29 16 41 22 NW - - 0,0
19.07.2018 09:00:00 - - 33 18 48 26 NW - - 0,0
19.07.2018 08:00:00 - - 19 10 34 18 NW - 20 0,0
19.07.2018 07:00:00 - - 21 11 29 16 NW - - 0,0
19.07.2018 06:00:00 - - 4 2 10 6 NNW - - 0,0
19.07.2018 05:00:00 - - 4 2 12 7 WNW - 20 0,0
19.07.2018 04:00:00 - - 4 2 12 7 NW - - 0,0
19.07.2018 03:00:00 - - 11 6 16 9 NW - - 0,0
19.07.2018 02:00:00 - - 10 6 23 12 NW - - 0,0
19.07.2018 01:00:00 - - 16 8 54 29 NNW - - 0,0
19.07.2018 00:00:00 - - 31 17 48 26 NW - - 0,0
18.07.2018 23:00:00 - - 34 18 52 28 NW - - 0,0
18.07.2018 22:00:00 - - 55 30 76 41 NNW - - 0,0
18.07.2018 21:00:00 - - 54 29 68 37 NNW - - 0,0
18.07.2018 20:00:00 - - 48 26 58 31 ZZO - 18 0,0
18.07.2018 19:00:00 - - 53 28 64 35 ZZO - - 0,0
18.07.2018 18:00:00 - - 54 29 61 33 ZZO - - 0,0
18.07.2018 17:00:00 - - 46 25 57 31 ZO - - 0,0
18.07.2018 16:00:00 - - 46 25 51 28 ZO - - 0,0
18.07.2018 15:00:00 - - 36 20 44 24 ZO - - 0,0
18.07.2018 14:00:00 - - 27 15 32 17 ZO - 25 0,0
18.07.2018 13:00:00 - - 19 10 22 12 ZO - - 0,0
18.07.2018 12:00:00 - - 11 6 16 8 ZO - - 0,0
18.07.2018 11:00:00 - - 8 4 13 7 ZO - 25 0,0
18.07.2018 10:00:00 - - 4 2 8 5 OZO - - 0,0
18.07.2018 09:00:00 - - 2 1 4 2 ZO - - 0,0
18.07.2018 08:00:00 - - 0 0 3 1 N - 25 0,0
18.07.2018 07:00:00 - - 0 0 4 2 N - - 0,0
18.07.2018 06:00:00 - - 0 0 7 4 N - - 0,0
18.07.2018 05:00:00 - - 5 3 24 13 NNW - 25 0,0
18.07.2018 04:00:00 - - 17 9 22 12 NW - - 0,0
18.07.2018 03:00:00 - - 8 4 21 12 WNW - - 0,0
18.07.2018 02:00:00 - - 15 8 30 16 NW - - 0,0
18.07.2018 01:00:00 - - 23 13 33 18 NW - - 0,0
18.07.2018 00:00:00 - - 22 12 35 19 WNW - - 0,0
17.07.2018 23:00:00 - - 21 12 33 18 WNW - - 0,0
17.07.2018 22:00:00 - - 16 8 25 13 WNW - - 0,0
17.07.2018 21:00:00 - - 7 4 12 6 ZZW - - 0,0
17.07.2018 20:00:00 - - 8 4 18 10 N - 25 0,0
17.07.2018 19:00:00 - - 14 7 22 12 ZZO - - 0,0
17.07.2018 18:00:00 - - 4 2 34 18 NNO - - 0,0
17.07.2018 17:00:00 - - 35 19 44 24 NNO - - 0,0
17.07.2018 16:00:00 - - 34 18 37 20 N - - 0,0
17.07.2018 15:00:00 - - 29 16 34 18 N - - 0,0
17.07.2018 14:00:00 - - 25 14 39 21 N - - 0,0
17.07.2018 13:00:00 - - 34 18 48 26 NNW - - -
17.07.2018 12:00:00 - - 41 22 56 30 NW - - -
17.07.2018 11:00:00 - - 44 24 61 33 NW - 25 -
17.07.2018 10:00:00 - - 44 24 73 40 NW - - -
17.07.2018 09:00:00 - - 40 22 74 40 NW - - -
17.07.2018 08:00:00 - - 41 22 75 40 NW - - -
17.07.2018 07:00:00 - - 45 25 71 39 NW - - -
17.07.2018 06:00:00 - - 45 25 79 42 NW - - -
17.07.2018 05:00:00 - - 58 31 91 49 NW - - -
17.07.2018 04:00:00 - - 55 30 96 52 NW - - -
17.07.2018 03:00:00 - - 59 32 91 49 NW - - -
17.07.2018 02:00:00 - - 69 37 99 53 NW - - -
17.07.2018 01:00:00 - - 74 40 108 58 NW - - -
17.07.2018 00:00:00 - - 72 39 93 50 NW - - -
16.07.2018 23:00:00 - - 51 28 74 40 NW - - -
16.07.2018 22:00:00 - - 43 23 94 51 NW - - -
16.07.2018 21:00:00 - - 61 33 96 52 NW - - -
16.07.2018 20:00:00 - - 70 38 111 60 NW - 25 -
16.07.2018 19:00:00 - - 80 43 119 64 NW - - -
16.07.2018 18:00:00 - - 85 46 114 62 NW - - -
16.07.2018 17:00:00 - - 79 43 102 55 NW - - -
16.07.2018 16:00:00 - - 78 42 95 52 NNW - - -
16.07.2018 15:00:00 - - 66 35 88 48 NNW - - -
16.07.2018 14:00:00 - - 48 26 87 47 NW - 15 -
16.07.2018 13:00:00 - - 49 27 84 46 NW - - -
16.07.2018 12:00:00 - - 57 31 91 49 NW - - -
16.07.2018 11:00:00 - - 49 26 88 48 NW - 8 -
16.07.2018 10:00:00 22,7 19,7 47 25 58 31 NNW 1010,0 - 0,0
16.07.2018 09:00:00 22,6 19,9 24 13 31 17 NNW 1010,1 - 0,0
16.07.2018 08:00:00 22,7 19,7 23 12 33 18 NNW 1010,4 15 0,0
16.07.2018 07:00:00 22,5 20,6 24 13 36 19 NNW 1010,7 18 0,6
16.07.2018 06:00:00 22,8 20,9 27 15 34 18 NNW 1010,8 - 0,0
16.07.2018 05:00:00 23,1 21,7 26 14 33 18 NNW 1011,7 18 0,0
16.07.2018 04:00:00 23,2 22,2 24 13 32 17 NNW 1012,2 - 0,0
16.07.2018 03:00:00 23,3 22,3 27 14 38 21 NNW 1012,5 - 0,0
16.07.2018 02:00:00 23,1 21,9 26 14 34 18 NNW 1012,7 - 0,0
16.07.2018 01:00:00 23,1 21,9 31 17 39 21 NNW 1012,9 - 0,0
16.07.2018 00:00:00 23,2 22,0 34 18 42 23 NNW 1012,5 10 0,0
15.07.2018 23:00:00 23,8 22,4 34 18 45 24 NW 1012,0 - 0,0
15.07.2018 22:00:00 24,2 22,3 27 15 36 20 NW 1011,6 - 0,0
15.07.2018 21:00:00 24,1 22,7 16 8 37 20 ZZO 1011,5 - 0,0
15.07.2018 20:00:00 24,5 22,6 30 16 38 20 ZZO 1011,1 - 0,0
15.07.2018 19:00:00 24,7 22,0 32 18 40 21 ZZO 1011,7 - 0,0
15.07.2018 18:00:00 25,0 22,5 29 16 38 20 ZO 1012,0 - 0,0
15.07.2018 17:00:00 25,3 21,4 29 15 34 18 ZO 1012,6 15 0,0
15.07.2018 16:00:00 25,6 21,7 22 12 27 15 ZO 1013,3 - 0,0
15.07.2018 15:00:00 26,8 21,8 14 8 25 14 OZO 1013,8 - 0,0
15.07.2018 14:00:00 25,8 20,8 14 7 21 11 O 1014,5 - 0,0
15.07.2018 13:00:00 25,4 19,8 11 6 21 11 ONO 1015,0 - 0,0
15.07.2018 12:00:00 28,2 19,2 11 6 16 9 ONO 1015,3 - 0,0
15.07.2018 11:00:00 27,2 17,7 6 3 11 6 ONO 1015,5 - 0,0
15.07.2018 10:00:00 27,2 18,5 10 5 14 7 N 1015,6 - 0,0
15.07.2018 09:00:00 26,5 16,1 9 5 21 11 NNW 1015,4 - 0,0
15.07.2018 08:00:00 25,6 15,9 12 7 20 11 NNW 1015,2 - 0,0
15.07.2018 07:00:00 23,9 17,4 20 11 27 15 N 1014,8 - 0,0
15.07.2018 06:00:00 23,9 17,4 22 12 38 20 NW 1014,7 - 0,0
15.07.2018 05:00:00 24,6 17,8 30 16 57 31 NW 1014,8 18 0,0
15.07.2018 04:00:00 23,9 16,4 21 11 29 16 NW 1015,1 - 0,0
15.07.2018 03:00:00 25,1 16,5 7 4 11 6 ZZW 1014,3 - 0,0
15.07.2018 02:00:00 24,0 17,5 9 5 16 9 NW 1014,5 - 0,0
15.07.2018 01:00:00 24,0 17,7 3 2 8 4 N 1015,0 - 0,0
15.07.2018 00:00:00 24,0 19,5 4 2 8 4 ZZW 1014,8 - 0,0
14.07.2018 23:00:00 23,6 20,5 8 5 10 5 Z 1015,0 - 0,0
14.07.2018 22:00:00 23,6 19,5 5 3 21 11 N 1014,7 - 0,0
14.07.2018 21:00:00 24,7 19,5 17 9 23 12 NW 1014,2 - 0,0
14.07.2018 20:00:00 24,2 21,5 21 12 29 16 ZZO 1014,2 - 0,0
14.07.2018 19:00:00 24,4 20,7 18 10 40 22 ZZO 1014,6 - 0,0
14.07.2018 18:00:00 24,8 20,7 29 16 34 18 ZZO 1014,3 - 0,0
14.07.2018 17:00:00 25,8 21,7 23 13 31 17 ZZO 1014,8 - 0,0
14.07.2018 16:00:00 25,4 21,7 29 15 32 17 ZZO 1015,0 - 0,0
14.07.2018 15:00:00 25,9 21,1 17 9 21 12 ZZO 1015,6 - 0,0
14.07.2018 14:00:00 26,3 19,7 9 5 16 9 ZZO 1016,1 20 0,0
14.07.2018 13:00:00 27,5 19,6 7 4 16 9 ONO 1016,6 - 0,0
14.07.2018 12:00:00 26,1 18,0 10 5 17 9 N 1016,8 - 0,0
14.07.2018 11:00:00 25,9 18,1 12 6 25 13 N 1017,1 - 0,0
14.07.2018 10:00:00 25,9 18,1 16 9 30 16 NNW 1016,8 - 0,0
14.07.2018 09:00:00 25,5 17,2 26 14 33 18 NW 1016,4 - 0,0
14.07.2018 08:00:00 26,2 16,4 24 13 32 18 NNW 1015,7 20 0,0
14.07.2018 07:00:00 25,7 16,3 22 12 32 18 NW 1015,6 - 0,0
14.07.2018 06:00:00 25,7 16,3 26 14 34 18 NW 1015,9 - 0,0
14.07.2018 05:00:00 23,4 19,1 23 12 32 18 NNW 1016,2 20 0,0
14.07.2018 04:00:00 24,5 17,7 27 15 42 23 NNW 1016,7 - 0,0
14.07.2018 03:00:00 25,8 16,1 27 15 39 21 NW 1016,8 - 0,0
14.07.2018 02:00:00 24,9 16,1 16 9 22 12 NNW 1016,4 - 0,0
14.07.2018 01:00:00 25,7 15,4 6 3 14 8 WZW 1016,3 - 0,0
14.07.2018 00:00:00 26,7 15,4 6 3 14 7 ZZW 1016,3 - 0,0
13.07.2018 23:00:00 25,8 13,6 11 6 18 10 NW 1016,6 - 0,0
13.07.2018 22:00:00 27,4 14,1 8 5 24 13 ZZW 1016,1 - 0,0
13.07.2018 21:00:00 27,4 14,1 23 13 37 20 ZW 1015,9 - 0,0

tt = temperatuur
td = dauwpunt
ff = windsnelheid
fx = windstoten
dd = windrichting
ppp = luchtdruk
vv = zicht
rr = neerslag

Weerstations in de omgeving